Showing default

XINGYUN-2 01, 45602

Orbit data source: Space-Track

XINGYUN-2 01, 45602 is a payload satellite owned by Xingyun (CN) in SSO that was launched on Tue, 12 May 2020 UTC via a KUAIZHOU-1A launch vehicle from the Jiuquan Satellite Launch Center, China (JSC). Payload-class satellites include a variety of spacecraft equipped with specific instruments for various scientific and technological missions. These include communications satellites like Starlink; space stations such as the ISS; scientific satellites like the Hubble; Earth observation satellites from companies like Planet Labs, Umbra, and HawkEye 360; GPS; miniature CubeSats for education and research; and military/defense satellites.

Loading next visibility...
Identifier
45602, 2020-028A
Orbit
SSO
Country
Flag of CNCN / PRC
Related business
Manufacturer
Sanjiang
Mission
Operational Commercial Communications
Bus & Motor
XINGYUN, Unknown motor
Mass
93 kg wet, ~85 kg dry
Launch date (UTC)
2020-05-12 (5 years ago)
Launch vehicle
KUAIZHOU-1A
Launch site
Jiuquan Satellite Launch Center, China (JSC)
Object type
Payload
Rocket body
Debris
Shape & HBR
Box, Unknown HBR
Radar Cross Section
0.569 m², Medium (>0.1 m² and < 1m²)

Expand to show TLE details & history
Last TLE update: 9 hours ago

TLE from 9 hours ago
0 XINGYUN-2 01
1 45602U 20028A   25307.81154669  .00003111  00000-0  19322-3 0  9992
2 45602  97.4749 300.0929 0007583 258.7831 101.2546 15.10378462300806
Epoch: 2025-11-03T19:28Z
TLE epoch observation values (Epoch: 2025-11-03T19:28:37.634Z)
Latitude
-0.00005°
Longitude
-35.37146°
Altitude
539.147 km
Speed
7.592 km/s
True Right ascension
20h 00m 22s
True Declination
0° 00' 00"
Sunlit
Object was in daylight at epoch
Visualization orbit readout
Latitude
Unknown
Longitude
Unknown
Altitude
Unknown
Speed
Unknown
Apparent Right ascension
Unknown
Apparent Declination
Unknown
Sunlit
N/A
Visualization observer readout
Local Sidereal Time
00:30:56
Azimuth
Unknown
Elevation
Unknown
Doppler factor
Unknown
Orbital elements
Apogee altitude
537.267 km
Perigee altitude
526.787 km
Semi-major axis
6,910.164 km
Eccentricity
0.00076
Inclination
97.4749°
RAAN
300.0929°
Arg. of periapsis
258.7831°
True anomaly
101.33981°
Mean anomaly
101.2546°
Eccentric anomaly
101.29721°
Mean motion
3.77842 °/min
Orbital period
95.28 mins
BSTAR
0.00019322
Loading maneuver chart data...
Computing Atmospheric mass density...
Loading historical data...
Loading historical data...
Loading historical data...
Loading historical data...
Loading historical data...
Loading historical data...
Loading historical data...
Other satellites on launch #28 in the year 2020 (2020-05-12 UTC)

Documentation

Showing up to 5 results
|